• In Deutschland
  • Länderverzeichnis
  • Für 7 Tage
  • Wassertemperatur
  • Satellitenkarten
  • Wetterkarte
  • Widgets
  • user-avatar
    Anmelden

    Stündliche Wetter Lezhe

    Heute, 20 Oktober, Freitag

    Zeit Temperatur Niederschläge Wind Luftdruck Luftfeuchtigkeit
    00:00 +16°C° 0 mm 1 m/S 739 mmHg 64%
    01:00 +15°C° 0 mm 1 m/S 739 mmHg 62%
    02:00 +15°C° 0 mm 1 m/S 739 mmHg 61%
    03:00 +15°C° 0 mm 1 m/S 739 mmHg 61%
    04:00 +15°C° 0 mm 1 m/S 739 mmHg 60%
    05:00 +15°C° 0 mm 1 m/S 739 mmHg 60%
    06:00 +16°C° 0 mm 1 m/S 739 mmHg 60%
    07:00 +18°C° 0 mm 1 m/S 740 mmHg 57%
    08:00 +20°C° 0 mm 1 m/S 740 mmHg 53%
    09:00 +21°C° 0 mm 1 m/S 740 mmHg 49%
    10:00 +23°C° 0 mm 1 m/S 740 mmHg 46%
    11:00 +24°C° 0 mm 1 m/S 740 mmHg 45%
    12:00 +24°C° 0 mm 2 m/S 740 mmHg 45%
    13:00 +24°C° 0 mm 2 m/S 740 mmHg 46%
    14:00 +24°C° 0 mm 2 m/S 740 mmHg 50%
    15:00 +23°C° 0 mm 1 m/S 739 mmHg 54%
    16:00 +22°C° 0 mm 1 m/S 739 mmHg 58%
    17:00 +21°C° 0 mm 1 m/S 740 mmHg 64%
    18:00 +19°C° 0 mm 1 m/S 740 mmHg 70%
    19:00 +16°C° 0 mm 1 m/S 740 mmHg 76%
    20:00 +16°C° 0 mm 1 m/S 740 mmHg 76%
    21:00 +16°C° 0 mm 1 m/S 740 mmHg 76%
    22:00 +15°C° 0 mm 1 m/S 740 mmHg 76%
    23:00 +15°C° 0 mm 1 m/S 740 mmHg 76%

    Morgen, 21 Oktober, Samstag

    Zeit Temperatur Niederschläge Wind Luftdruck Luftfeuchtigkeit
    00:00 +15°C° 0 mm 1 m/S 741 mmHg 75%
    01:00 +15°C° 0 mm 1 m/S 741 mmHg 74%
    02:00 +15°C° 0 mm 1 m/S 740 mmHg 73%
    03:00 +14°C° 0 mm 1 m/S 740 mmHg 72%
    04:00 +14°C° 0 mm 1 m/S 740 mmHg 72%
    05:00 +15°C° 0 mm 1 m/S 740 mmHg 70%
    06:00 +15°C° 0 mm 1 m/S 740 mmHg 68%
    07:00 +15°C° 0 mm 1 m/S 740 mmHg 66%
    08:00 +18°C° 0 mm 1 m/S 740 mmHg 60%
    09:00 +20°C° 0 mm 1 m/S 740 mmHg 54%
    10:00 +22°C° 0 mm 1 m/S 740 mmHg 48%
    11:00 +23°C° 0 mm 2 m/S 740 mmHg 48%
    12:00 +23°C° 0 mm 2 m/S 740 mmHg 47%
    13:00 +24°C° 0 mm 2 m/S 739 mmHg 47%
    14:00 +23°C° 0 mm 2 m/S 739 mmHg 52%
    15:00 +21°C° 0 mm 2 m/S 739 mmHg 58%
    16:00 +20°C° 0 mm 2 m/S 739 mmHg 63%
    17:00 +19°C° 0 mm 2 m/S 739 mmHg 72%
    18:00 +17°C° 0 mm 2 m/S 739 mmHg 80%
    19:00 +15°C° 0 mm 1 m/S 739 mmHg 88%
    20:00 +15°C° 0 mm 1 m/S 739 mmHg 89%
    21:00 +15°C° 0 mm 1 m/S 739 mmHg 89%
    22:00 +14°C° 0 mm 1 m/S 739 mmHg 89%
    23:00 +14°C° 0 mm 1 m/S 739 mmHg 88%

    übermorgen, 22 Oktober, Sonntag

    Zeit Temperatur Niederschläge Wind Luftdruck Luftfeuchtigkeit
    00:00 +14°C° 0 mm 1 m/S 739 mmHg 86%
    01:00 +14°C° 0 mm 1 m/S 739 mmHg 85%
    02:00 +13°C° 0 mm 1 m/S 739 mmHg 84%
    03:00 +13°C° 0 mm 1 m/S 739 mmHg 83%
    04:00 +13°C° 0 mm 1 m/S 738 mmHg 82%
    05:00 +14°C° 0 mm 1 m/S 738 mmHg 80%
    06:00 +14°C° 0 mm 1 m/S 738 mmHg 79%
    07:00 +14°C° 0 mm 1 m/S 738 mmHg 77%
    08:00 +16°C° 0 mm 1 m/S 738 mmHg 73%
    09:00 +18°C° 0 mm 2 m/S 738 mmHg 69%
    10:00 +20°C° 0 mm 2 m/S 738 mmHg 65%
    11:00 +20°C° 0 mm 2 m/S 737 mmHg 65%
    12:00 +21°C° 0 mm 2 m/S 737 mmHg 65%
    13:00 +21°C° 0 mm 2 m/S 736 mmHg 64%
    14:00 +20°C° 0 mm 2 m/S 736 mmHg 68%
    15:00 +20°C° 0 mm 2 m/S 736 mmHg 72%
    16:00 +19°C° 0 mm 2 m/S 735 mmHg 76%
    17:00 +18°C° 0 mm 2 m/S 735 mmHg 81%
    18:00 +17°C° 0 mm 2 m/S 735 mmHg 86%
    19:00 +16°C° 0 mm 2 m/S 735 mmHg 91%
    20:00 +16°C° 0,1 mm 2 m/S 735 mmHg 89%
    21:00 +16°C° 0,1 mm 2 m/S 735 mmHg 88%
    22:00 +16°C° 0,1 mm 3 m/S 734 mmHg 86%
    23:00 +16°C° 0,5 mm 3 m/S 734 mmHg 86%

    23 Oktober, Montag

    Zeit Temperatur Niederschläge Wind Luftdruck Luftfeuchtigkeit
    00:00 +16°C° 0,5 mm 3 m/S 733 mmHg 87%
    01:00 +15°C° 0,5 mm 4 m/S 733 mmHg 87%
    02:00 +16°C° 1,4 mm 3 m/S 732 mmHg 87%
    03:00 +16°C° 1,4 mm 3 m/S 732 mmHg 86%
    04:00 +16°C° 1,4 mm 3 m/S 731 mmHg 86%
    05:00 +16°C° 0,6 mm 3 m/S 731 mmHg 86%
    06:00 +16°C° 0,6 mm 3 m/S 731 mmHg 86%
    07:00 +14°C° 0,6 mm 3 m/S 731 mmHg 86%
    08:00 +16°C° 0,4 mm 3 m/S 731 mmHg 83%
    09:00 +17°C° 0,4 mm 3 m/S 730 mmHg 80%
    10:00 +17°C° 0,4 mm 4 m/S 730 mmHg 77%
    11:00 +17°C° 1 mm 4 m/S 730 mmHg 75%
    12:00 +17°C° 1 mm 4 m/S 729 mmHg 74%
    13:00 +17°C° 1 mm 4 m/S 729 mmHg 73%
    14:00 +16°C° 1 mm 3 m/S 729 mmHg 75%
    15:00 +16°C° 1 mm 3 m/S 729 mmHg 78%
    16:00 +15°C° 1 mm 2 m/S 729 mmHg 80%
    17:00 +14°C° 1,1 mm 2 m/S 729 mmHg 82%
    18:00 +14°C° 1,1 mm 2 m/S 729 mmHg 83%
    19:00 +13°C° 1,1 mm 2 m/S 729 mmHg 85%
    20:00 +12°C° 0,6 mm 3 m/S 730 mmHg 84%
    21:00 +11°C° 0,6 mm 3 m/S 730 mmHg 83%
    22:00 +11°C° 0,6 mm 4 m/S 730 mmHg 82%
    23:00 +11°C° 0,3 mm 4 m/S 730 mmHg 81%

    24 Oktober, Dienstag

    Zeit Temperatur Niederschläge Wind Luftdruck Luftfeuchtigkeit
    00:00 +11°C° 0,3 mm 4 m/S 730 mmHg 81%
    01:00 +10°C° 0,3 mm 4 m/S 730 mmHg 80%
    02:00 +10°C° 0,2 mm 4 m/S 730 mmHg 80%
    03:00 +10°C° 0,2 mm 4 m/S 730 mmHg 80%
    04:00 +10°C° 0,2 mm 4 m/S 730 mmHg 80%
    05:00 +10°C° 0 mm 4 m/S 730 mmHg 79%
    06:00 +10°C° 0 mm 4 m/S 730 mmHg 79%
    07:00 +10°C° 0 mm 4 m/S 730 mmHg 78%
    08:00 +11°C° 0,1 mm 4 m/S 730 mmHg 73%
    09:00 +12°C° 0,1 mm 4 m/S 730 mmHg 67%
    10:00 +13°C° 0,1 mm 4 m/S 730 mmHg 62%
    11:00 +13°C° 0,2 mm 4 m/S 730 mmHg 62%
    12:00 +13°C° 0,2 mm 5 m/S 730 mmHg 63%
    13:00 +13°C° 0,2 mm 5 m/S 730 mmHg 64%
    14:00 +13°C° 0,1 mm 5 m/S 730 mmHg 65%
    15:00 +13°C° 0,1 mm 5 m/S 730 mmHg 66%
    16:00 +12°C° 0,1 mm 5 m/S 730 mmHg 67%
    17:00 +12°C° 0 mm 5 m/S 730 mmHg 69%
    18:00 +10°C° 0 mm 5 m/S 731 mmHg 72%
    19:00 +10°C° 0 mm 5 m/S 731 mmHg 74%
    20:00 +10°C° 0 mm 5 m/S 731 mmHg 74%
    21:00 +10°C° 0 mm 5 m/S 731 mmHg 74%
    22:00 +12°C° 0 mm 5 m/S 732 mmHg 74%
    23:00 +10°C° 0 mm 5 m/S 732 mmHg 75%

    25 Oktober, Mittwoch

    Zeit Temperatur Niederschläge Wind Luftdruck Luftfeuchtigkeit
    00:00 +10°C° 0 mm 5 m/S 732 mmHg 76%
    01:00 +10°C° 0 mm 5 m/S 732 mmHg 78%
    02:00 +10°C° 0 mm 5 m/S 733 mmHg 78%
    03:00 +10°C° 0 mm 5 m/S 733 mmHg 78%
    04:00 +10°C° 0 mm 5 m/S 733 mmHg 79%
    05:00 +10°C° 0 mm 5 m/S 734 mmHg 78%
    06:00 +10°C° 0 mm 6 m/S 734 mmHg 78%
    07:00 +11°C° 0 mm 6 m/S 735 mmHg 77%
    08:00 +13°C° 0 mm 6 m/S 735 mmHg 73%
    09:00 +14°C° 0 mm 7 m/S 736 mmHg 69%
    10:00 +15°C° 0 mm 7 m/S 736 mmHg 65%
    11:00 +15°C° 0 mm 7 m/S 736 mmHg 63%
    12:00 +16°C° 0 mm 7 m/S 737 mmHg 61%
    13:00 +16°C° 0 mm 7 m/S 737 mmHg 58%
    14:00 +15°C° 0 mm 7 m/S 737 mmHg 61%
    15:00 +15°C° 0 mm 6 m/S 737 mmHg 63%
    16:00 +14°C° 0 mm 6 m/S 738 mmHg 65%
    17:00 +13°C° 0 mm 6 m/S 738 mmHg 68%
    18:00 +11°C° 0 mm 6 m/S 739 mmHg 70%
    19:00 +10°C° 0 mm 6 m/S 739 mmHg 73%
    20:00 +10°C° 0 mm 5 m/S 740 mmHg 74%
    21:00 +9°C° 0 mm 5 m/S 740 mmHg 74%
    22:00 +9°C° 0 mm 5 m/S 741 mmHg 75%
    23:00 +8°C° 0 mm 4 m/S 741 mmHg 76%
    Mehr zeigen